Theta_e
310 310 310 311 311 310 311 309 308 307 308 308 309 311 312 312 312 312 318 327 320 318 321 324 323 322 323 324 320 324 321 323 322 318 313 314 312 315 312 316 316 314 313 309 313 303 308 324 322 314 326 327 324 325
310 310 310 310 310 310 310 311 309 308 307 308 309 310 310 311 311 311 316 323 322 315 317 323 324 325 324 325 321 324 324 325 325 323 315 318 313 319 318 312 324 315 320 317 317 318 327 327 327 330 329 328 327 328
309 309 310 310 310 310 310 310 310 309 308 307 308 309 309 310 310 310 312 317 317 315 318 319 318 325 328 326 328 321 327 326 326 325 326 323 319 321 314 315 318 323 326 321 322 323 325 327 329 329 329 328 330 330
309 309 309 309 309 310 309 309 310 310 309 308 307 308 308 309 309 309 310 317 315 315 311 318 326 325 330 331 328 326 324 324 325 325 323 322 318 326 317 320 317 322 324 322 324 325 326 326 327 328 329 329 328 329
309 309 309 309 309 309 309 309 309 310 309 309 308 307 307 308 309 310 312 316 318 312 312 317 322 324 325 330 327 327 324 321 325 321 319 316 320 322 322 320 319 324 320 317 315 328 326 327 329 329 328 327 328 327
309 309 309 309 309 309 309 309 309 310 311 309 308 308 308 308 309 310 312 320 319 317 312 311 323 323 325 327 328 324 326 324 326 322 319 320 322 322 317 315 323 325 327 328 326 329 329 329 330 330 328 328 327 327
309 309 309 309 309 309 309 309 309 309 311 309 310 309 308 309 307 307 308 312 309 319 313 313 314 323 324 327 326 326 324 325 325 325 321 319 319 319 316 313 325 327 328 328 330 330 327 328 326 329 329 328 325 326
309 309 309 310 310 310 310 309 309 309 310 310 310 309 308 308 307 306 312 309 313 315 318 312 315 319 323 320 319 326 323 324 325 326 326 322 322 323 316 327 328 328 329 328 329 329 329 330 330 328 328 326 324 323
309 309 309 309 309 309 309 309 309 309 310 310 309 309 308 308 308 314 314 312 313 316 312 313 313 311 322 320 322 322 324 318 325 320 321 325 320 317 322 329 327 328 328 328 328 330 329 328 327 327 326 325 323 322
309 309 309 309 309 309 309 309 309 309 310 309 307 307 305 313 313 315 311 312 313 317 316 313 320 317 318 319 318 318 320 317 313 319 324 318 316 326 329 331 332 330 330 330 326 325 327 326 326 326 324 325 324 323
309 309 308 308 308 309 309 309 309 308 307 305 304 306 313 312 316 313 310 310 312 310 313 314 317 317 322 315 315 320 315 317 311 316 314 313 312 323 329 331 333 332 331 330 330 330 330 328 326 325 324 324 324 323
308 308 308 308 308 308 309 309 309 305 304 303 301 306 313 310 309 308 304 308 309 307 313 311 316 321 320 325 318 318 315 316 309 319 313 309 320 331 330 330 331 332 330 328 329 328 328 328 327 326 325 324 323 321
308 308 308 309 309 308 308 308 307 307 306 306 303 301 304 308 297 301 299 303 306 312 315 314 314 320 321 322 319 316 311 310 319 311 309 315 330 330 332 331 330 330 329 328 328 328 328 327 327 326 324 325 322 321
307 307 307 307 307 308 307 306 305 306 304 297 296 291 301 302 304 304 307 307 314 315 315 314 316 317 318 316 317 310 314 316 308 306 308 321 329 330 331 330 329 327 328 327 327 327 326 326 325 326 325 323 322 319
306 306 306 306 306 305 306 306 306 306 301 295 297 294 302 308 311 310 313 315 319 318 315 313 316 317 314 313 314 313 310 306 309 309 317 328 332 334 331 329 328 328 328 327 327 326 326 326 325 324 324 322 320 319
305 305 306 305 306 306 306 306 306 307 299 296 297 301 308 309 311 312 316 316 319 320 317 315 313 311 311 312 309 308 307 305 311 318 329 332 332 334 335 331 332 330 329 328 327 327 327 326 324 323 321 319 319 319
304 301 306 306 305 306 306 303 305 298 296 297 302 308 308 311 310 313 315 315 320 318 311 312 308 308 314 309 308 312 309 314 319 322 326 336 334 338 335 333 331 331 330 329 328 328 326 324 322 319 317 318 317 319
304 306 306 305 306 304 304 301 299 300 297 301 302 308 312 313 313 312 313 317 319 317 316 312 316 310 308 306 309 315 318 322 324 328 331 334 335 338 335 333 331 331 330 329 329 326 323 321 319 317 319 319 318 319
305 307 304 304 305 303 299 301 301 296 302 307 309 313 312 313 314 315 317 319 320 319 318 319 312 309 310 314 315 319 322 324 325 328 332 335 336 336 335 332 332 331 330 328 325 322 320 321 318 318 318 318 316 317
306 306 306 305 305 302 298 302 308 302 300 308 311 311 313 311 314 313 313 315 316 319 316 313 312 314 317 322 319 317 323 328 328 327 328 331 333 333 332 330 328 329 327 327 324 315 319 319 320 320 320 317 316 316
304 308 307 308 304 303 300 302 302 305 305 306 307 309 309 310 310 312 311 315 315 314 313 314 316 324 331 332 331 329 332 329 326 327 327 327 330 330 329 329 330 327 324 322 320 318 316 319 319 318 316 316 319 321
310 307 309 306 300 303 304 306 305 309 306 309 307 307 305 305 307 310 315 315 313 314 317 325 326 327 328 331 331 332 333 333 332 327 319 321 327 327 326 328 327 324 322 322 322 320 320 320 320 318 317 318 314 316
306 307 303 303 297 297 297 309 303 305 300 304 308 304 304 307 311 317 311 313 314 319 321 324 329 331 332 334 335 334 335 333 328 328 328 328 328 329 328 327 326 323 322 322 323 322 322 313 316 319 318 317 317 315
304 301 298 297 296 293 301 299 305 305 307 304 304 300 304 307 315 311 308 313 316 321 323 327 328 329 330 333 329 330 330 331 329 328 330 328 326 327 327 325 325 324 324 324 323 320 319 319 313 317 317 317 316 315
294 294 295 290 299 296 295 298 300 303 298 301 301 302 306 312 306 307 308 315 318 320 322 326 327 327 327 326 327 328 331 329 327 327 329 329 328 328 326 325 324 325 325 322 319 317 316 317 317 318 316 317 316 315
289 294 291 294 295 294 295 294 297 298 300 300 301 307 312 309 303 304 312 319 320 321 323 324 324 324 324 326 324 323 325 327 327 324 325 326 325 323 323 320 320 322 325 324 321 318 317 317 316 317 316 314 304 314
290 293 297 301 300 300 298 301 302 300 297 296 300 302 305 301 302 313 322 323 322 326 329 333 330 325 324 324 326 326 327 328 327 327 328 327 328 328 326 323 322 323 326 324 322 319 318 317 317 317 317 317 318 317
297 298 294 300 299 301 298 300 299 298 300 304 304 301 302 305 306 317 322 325 329 331 332 331 329 326 325 326 327 327 327 328 328 328 327 327 327 326 327 325 327 307 324 322 320 320 319 318 318 317 318 319 319 319
297 300 300 297 299 300 301 300 301 305 308 305 303 305 308 312 317 321 322 325 327 328 326 324 325 326 326 327 328 328 328 327 325 323 322 320 320 320 322 323 323 324 323 320 297 308 319 319 321 321 319 318 319 319
300 303 299 300 300 299 304 306 305 309 311 311 312 313 313 314 319 330 324 322 321 323 323 324 325 323 323 323 323 324 326 327 327 323 319 317 318 319 320 320 320 321 320 320 319 318 301 313 310 318 316 316 316 317
304 303 302 302 301 305 307 309 310 310 311 312 314 311 311 314 319 323 323 323 323 323 324 322 322 323 323 324 324 323 323 326 327 326 324 323 322 321 320 321 321 322 321 320 319 317 316 315 315 315 316 318 318 315
306 305 303 300 302 309 311 308 308 308 308 308 309 314 317 314 310 314 321 323 322 320 315 318 322 322 327 326 326 326 312 326 327 326 326 322 321 323 323 322 322 321 320 320 318 317 317 316 316 317 317 318 318 317
307 307 307 305 304 304 308 308 306 305 307 306 307 311 312 312 309 315 322 323 323 322 323 325 328 330 328 331 327 326 316 327 316 301 303 307 308 312 320 321 321 322 321 320 318 318 318 318 317 318 319 318 317 316
Wind_Speed
12 11 11 12 12 13 12 10 10 10 12 12 12 13 13 13 15 11 7 1 5 8 15 14 10 9 9 6 9 9 7 8 7 13 3 7 14 12 15 19 17 9 11 8 5 10 11 10 10 0 7 6 6 6
13 11 11 12 12 12 13 13 11 11 11 11 12 12 12 12 14 14 7 3 4 7 11 16 17 16 13 11 9 6 8 5 6 7 5 11 9 2 17 9 2 6 4 4 7 8 10 9 10 8 7 8 7 9
13 13 12 12 12 12 13 14 11 11 11 10 12 11 12 12 12 10 8 7 8 8 12 14 13 11 8 11 10 5 2 8 6 5 4 2 8 4 6 10 11 3 4 6 10 7 7 10 9 7 8 9 10 10
13 13 13 13 13 12 13 13 14 12 12 11 11 12 12 12 12 11 9 7 6 7 7 7 6 10 3 8 5 6 6 5 6 5 4 5 4 5 2 10 3 6 5 6 8 7 7 7 7 9 10 11 12 11
13 13 13 13 13 13 13 13 14 15 12 13 11 12 12 13 13 12 10 9 7 7 7 10 13 9 10 9 2 5 6 7 1 3 1 7 7 7 4 3 10 7 5 6 5 14 4 13 10 12 12 13 12 12
14 14 14 14 14 14 14 13 13 14 13 12 12 11 11 11 13 9 5 3 5 5 6 6 1 6 8 9 8 5 3 5 4 2 1 5 7 10 2 3 8 10 8 3 10 10 12 14 14 14 13 13 12 11
15 14 14 15 15 15 14 14 13 14 14 12 12 11 9 10 9 7 8 5 10 6 6 6 6 9 9 9 5 3 5 0 7 8 6 8 10 3 6 6 12 12 9 9 12 12 14 14 14 13 13 13 10 11
15 14 15 15 15 15 15 14 12 13 14 11 12 13 10 12 15 10 5 15 7 7 5 6 5 7 13 9 9 6 6 7 7 2 3 7 5 6 3 10 12 11 11 11 12 3 12 14 15 14 13 12 12 10
15 14 15 14 14 14 13 12 11 13 13 12 14 15 11 7 6 4 7 12 7 7 6 6 7 7 10 10 6 7 6 8 3 5 5 2 6 5 5 11 11 13 12 12 7 13 15 16 16 15 13 12 10 10
14 13 13 13 13 14 12 9 11 14 11 12 11 7 6 5 8 6 4 7 7 7 7 7 8 2 8 7 6 6 6 6 6 4 5 5 7 8 5 5 8 11 9 13 15 15 17 16 15 14 12 9 10 10
13 13 13 13 13 13 13 10 11 8 12 3 4 3 4 4 4 5 5 6 8 6 7 8 9 4 5 10 7 4 5 5 5 7 5 5 7 9 10 10 9 9 11 12 12 14 14 14 13 12 10 9 10 11
13 13 13 14 14 13 10 9 7 7 4 2 4 6 4 3 5 7 7 7 7 9 8 12 8 8 6 3 3 5 4 2 4 6 4 7 7 12 11 13 12 13 14 14 15 14 13 12 11 10 10 10 11 11
13 12 11 10 9 9 9 7 6 7 11 3 2 4 4 6 6 8 10 7 7 5 7 10 10 6 4 7 2 5 5 5 5 5 5 1 10 10 12 12 14 14 14 15 14 14 13 13 11 11 11 12 12 11
7 6 6 5 1 4 5 4 3 4 5 3 3 4 7 8 8 7 10 7 3 6 6 10 10 8 7 9 5 4 4 4 6 7 10 9 13 13 13 14 16 17 17 16 15 15 14 12 11 12 12 12 11 9
4 4 3 0 3 3 4 4 4 5 1 3 4 6 9 9 7 5 2 7 3 5 6 10 7 8 10 6 3 4 7 6 7 7 5 12 14 14 15 17 17 16 15 14 14 13 13 13 13 12 12 11 10 9
8 8 1 3 5 5 5 6 5 2 2 4 5 6 5 6 4 3 3 4 3 3 5 9 5 5 7 4 8 7 7 7 7 4 11 11 13 14 14 15 15 15 14 14 13 13 13 12 12 13 12 10 10 9
6 1 8 7 5 5 4 2 3 5 4 5 6 7 5 5 2 2 1 0 1 7 9 6 6 6 7 7 7 6 5 6 9 9 8 11 14 14 14 15 15 14 14 14 14 13 12 12 13 11 11 10 10 9
3 3 5 5 1 3 3 3 3 5 7 8 6 4 4 3 2 3 2 4 4 3 6 3 6 8 8 11 9 7 7 5 9 9 9 11 14 13 13 16 16 15 14 14 13 13 12 13 12 9 10 10 10 9
8 5 1 1 2 2 3 5 3 5 6 1 5 3 5 6 3 3 2 2 2 4 6 2 7 9 5 3 7 5 12 10 8 9 10 13 14 15 15 16 15 15 14 14 13 10 10 12 9 9 9 9 8 9
10 9 8 6 2 3 4 4 4 4 6 2 2 3 3 3 5 4 4 3 3 2 3 4 4 4 4 5 7 7 4 12 11 11 11 11 12 16 15 15 12 14 12 13 10 10 10 9 8 8 7 7 6 7
5 5 4 6 4 4 3 4 5 4 4 4 4 4 3 5 5 4 5 4 2 4 7 9 7 8 6 7 8 8 10 9 9 10 12 13 13 13 13 12 13 11 10 10 10 10 8 7 7 7 7 6 3 1
2 3 1 2 2 4 5 6 5 3 5 1 5 6 4 7 5 4 4 3 5 8 8 5 9 10 6 7 4 4 7 7 8 11 12 14 12 13 11 11 11 10 9 9 9 10 7 8 8 8 7 6 2 6
1 2 1 4 4 3 6 4 5 5 5 4 3 5 5 4 2 3 3 5 6 7 4 3 7 6 5 5 5 7 7 10 10 11 13 11 11 10 10 10 9 10 9 8 7 8 7 7 8 8 7 6 5 6
3 3 3 3 5 3 2 4 5 4 2 4 4 4 4 4 3 4 5 6 7 6 6 5 5 3 6 9 8 9 9 8 10 10 10 10 10 10 7 7 8 9 7 5 7 7 7 8 9 7 8 7 7 8
3 3 3 4 3 3 4 4 5 2 4 5 4 4 4 3 4 5 6 6 7 6 6 7 5 6 8 8 8 9 10 9 9 10 10 10 11 10 10 10 9 7 5 7 9 9 10 10 9 8 7 7 8 6
5 5 4 4 2 4 4 3 5 5 2 3 3 3 3 3 4 6 6 6 7 5 6 7 8 6 9 8 9 8 8 8 8 8 7 7 8 9 11 10 7 4 8 6 8 10 10 11 9 9 7 7 3 5
4 5 5 4 3 3 4 3 1 3 5 5 3 3 2 5 6 2 4 5 7 6 7 9 6 9 9 9 8 7 7 7 8 8 8 7 7 6 8 12 12 8 8 8 8 8 9 10 10 9 5 5 6 9
4 2 5 3 5 4 4 3 5 6 4 3 2 6 5 1 2 3 4 5 6 5 5 7 9 10 9 9 8 8 8 9 9 9 8 8 8 7 7 7 8 7 6 7 9 9 9 9 8 7 6 2 2 3
4 3 3 5 4 4 3 2 3 3 2 3 2 3 1 0 3 7 9 8 6 6 8 8 9 9 9 8 8 7 8 8 10 13 12 9 7 6 7 9 10 10 8 8 13 11 11 7 3 1 2 4 4 3
3 3 3 4 3 4 3 4 2 1 3 2 2 2 1 2 4 5 10 8 6 6 6 5 7 7 8 9 9 9 9 9 9 9 9 9 9 11 10 10 10 10 9 10 9 8 4 5 5 5 4 5 5 5
2 2 3 2 2 2 2 1 2 2 2 2 2 3 2 2 6 10 8 6 4 6 4 7 5 5 7 8 6 8 7 6 9 10 9 10 10 10 10 8 7 7 7 7 8 9 9 9 8 8 6 3 6 4
2 1 3 4 3 5 3 3 2 2 2 1 1 4 9 6 5 4 6 5 4 5 6 5 5 4 4 8 6 7 3 7 6 7 10 8 9 9 8 7 8 7 7 7 8 10 9 8 7 5 4 6 6 6
2 6 5 1 4 6 4 3 4 4 5 5 5 5 4 4 5 1 2 2 2 3 2 5 4 1 3 2 7 8 4 9 12 12 12 6 10 5 5 8 8 7 8 7 8 9 7 6 6 5 7 6 6 4
Wind_Direction
312 312 319 321 323 330 326 310 313 319 326 330 338 337 343 349 347 329 315 62 289 293 298 296 298 308 314 312 322 36 236 223 240 258 190 189 162 184 168 161 186 177 213 226 166 44 255 139 146 58 97 140 127 135
314 313 314 316 316 319 323 320 304 304 318 330 330 333 337 342 342 337 271 141 284 264 299 320 285 279 278 294 310 312 326 357 8 282 324 100 298 172 138 141 108 200 56 44 42 18 120 110 81 111 118 123 140 133
312 310 307 306 310 311 316 319 305 303 301 319 324 323 333 333 337 332 304 311 279 258 267 236 244 216 250 239 249 285 62 307 41 360 257 15 107 150 178 118 157 103 358 82 151 175 129 95 105 107 123 126 119 129
309 308 308 307 306 305 308 313 315 300 297 299 313 319 325 328 324 314 288 315 289 280 275 189 120 204 228 205 210 224 293 300 291 322 347 333 55 329 90 133 128 62 157 126 97 114 114 123 126 125 121 124 121 121
303 303 303 304 305 303 300 304 307 311 287 293 297 313 316 319 316 291 263 255 257 287 326 316 329 232 178 196 174 237 233 218 26 278 64 9 344 326 96 12 134 162 164 220 336 141 201 150 144 138 136 132 128 120
298 299 299 298 299 299 300 298 302 304 296 291 291 293 310 309 315 278 206 182 238 236 277 257 269 189 166 162 191 230 298 0 278 191 23 54 303 287 213 222 64 83 79 52 117 138 116 139 144 147 142 134 134 124
296 294 293 292 290 292 295 296 294 301 302 288 293 288 294 288 292 282 346 8 333 283 247 254 212 165 188 182 161 199 214 291 282 175 191 158 239 252 282 282 119 109 111 110 111 118 127 146 149 141 135 120 121 116
294 294 294 293 290 287 288 285 286 294 293 289 294 287 283 278 269 253 206 212 240 262 260 264 247 148 190 178 178 176 187 191 221 210 163 188 145 235 237 119 124 124 129 139 143 122 144 141 134 135 133 146 140 131
290 289 291 292 290 289 291 287 287 293 301 290 294 283 272 224 230 65 97 136 207 292 292 220 246 182 169 213 167 185 207 197 112 227 174 195 181 208 166 150 153 153 162 163 164 127 137 145 145 148 155 156 142 135
292 291 291 289 290 293 289 282 286 292 281 289 278 219 207 68 116 152 205 186 202 204 222 257 275 188 197 173 177 166 193 217 183 179 107 233 240 134 121 132 157 167 175 163 144 145 153 150 154 158 159 152 136 142
293 292 291 288 288 289 291 274 289 283 261 231 272 20 349 143 223 218 202 228 191 210 203 231 241 208 231 197 183 202 184 146 234 140 219 215 230 171 145 142 154 164 158 155 153 150 152 155 153 153 143 135 136 140
292 288 285 283 279 273 272 284 240 250 341 7 297 281 278 241 228 228 165 262 214 213 173 201 195 237 148 288 196 149 203 135 234 119 206 238 109 114 147 148 149 154 157 141 135 145 139 140 141 141 139 143 140 133
291 284 286 288 273 254 259 215 226 295 280 227 255 251 216 182 226 224 174 204 210 211 136 204 171 191 126 234 126 187 205 204 117 186 218 234 123 142 142 145 149 156 131 134 133 125 129 131 136 142 141 136 134 142
299 310 322 322 340 137 140 182 225 258 260 243 244 243 225 186 220 224 194 199 51 110 175 188 178 197 173 200 157 215 174 137 208 215 210 145 146 143 149 154 155 144 137 136 132 132 131 137 136 137 137 139 145 142
337 316 307 211 134 167 212 224 224 237 291 252 239 237 221 255 286 155 114 132 130 124 196 205 180 206 171 186 197 103 177 210 202 220 112 117 141 150 159 163 153 145 142 140 137 135 138 138 142 140 139 147 141 143
325 303 336 8 332 291 219 211 215 228 248 246 234 265 254 279 245 347 102 155 357 213 189 222 170 195 185 176 185 201 199 214 170 101 97 126 145 156 159 159 149 145 145 138 136 137 140 147 145 140 145 141 146 151
306 289 305 279 211 245 165 250 237 209 249 241 243 241 253 287 156 111 116 5 89 251 196 199 186 126 293 142 236 206 225 109 93 93 115 130 152 153 155 146 146 147 139 135 135 140 142 141 138 146 148 157 150 154
234 138 58 73 113 208 180 221 252 240 225 227 256 236 208 211 204 169 66 20 317 309 289 79 294 171 189 200 184 110 105 98 98 104 123 139 148 153 146 145 147 140 137 137 139 140 146 141 151 153 155 161 155 156
356 353 64 289 323 297 234 210 207 266 268 209 251 233 256 177 236 310 311 50 8 312 304 273 221 209 199 189 188 203 148 139 128 114 122 139 147 145 144 145 141 140 140 140 146 156 144 166 162 155 170 172 187 177
286 264 249 243 219 277 259 219 211 267 278 288 254 208 241 281 149 204 248 279 281 254 244 239 242 237 49 345 97 322 176 117 129 135 133 144 146 148 150 150 146 140 142 147 158 145 150 178 175 177 160 181 180 159
232 134 156 178 201 228 286 288 239 222 254 261 237 157 253 251 217 181 174 217 220 231 232 236 69 344 33 2 333 44 85 130 155 151 149 149 154 152 156 143 149 153 148 162 153 146 180 164 157 133 150 177 161 129
103 141 191 139 258 239 244 217 258 293 241 251 280 235 231 227 221 193 132 166 226 225 245 345 359 353 35 44 46 54 108 164 142 122 134 139 154 154 151 157 168 149 161 158 168 154 177 166 152 149 186 124 228 116
118 272 191 218 230 240 274 313 243 224 228 192 195 236 220 224 218 78 243 227 220 219 244 291 17 323 344 73 88 113 134 133 140 140 146 156 149 152 147 162 158 165 160 154 160 175 165 119 143 168 132 169 156 134
145 231 239 224 192 250 250 250 237 241 233 219 202 223 211 196 114 217 237 211 201 197 186 213 238 162 151 157 148 138 150 129 125 145 141 144 149 159 153 157 178 125 138 170 167 136 137 177 149 181 171 180 181 181
233 230 220 244 226 239 229 228 220 270 217 213 204 222 230 137 214 230 228 192 171 164 181 186 201 187 183 130 125 116 142 143 137 137 164 159 147 153 185 106 106 112 145 188 143 147 169 150 191 188 185 195 173 186
225 208 216 201 209 227 210 236 220 208 259 256 224 286 261 219 208 255 181 163 151 175 170 177 205 189 127 139 141 139 136 132 149 142 141 148 154 171 131 123 130 164 174 182 169 165 173 166 200 190 187 122 75 312
241 222 187 216 253 228 232 251 218 196 195 212 232 214 239 226 211 181 157 152 140 171 185 219 202 135 133 134 118 124 130 136 128 132 138 160 149 147 150 159 164 161 162 161 161 176 175 182 188 193 199 195 198 202
244 235 235 175 208 209 256 213 189 196 204 207 234 207 229 262 208 173 133 109 125 142 205 187 133 131 131 128 127 130 125 121 134 154 151 136 139 147 159 116 126 148 166 141 157 166 172 183 186 188 202 249 286 188
241 216 233 246 227 222 234 229 210 211 174 180 236 211 204 300 281 101 107 114 144 149 119 123 123 122 129 135 127 129 128 143 152 146 141 129 122 124 99 116 149 170 155 128 70 38 46 28 332 256 147 215 159 127
241 169 246 238 245 207 181 197 226 191 176 222 258 169 34 346 340 109 99 78 68 83 83 92 123 139 141 133 134 145 143 140 158 148 151 149 139 130 142 158 154 147 155 156 169 128 85 195 152 186 180 143 168 216
197 220 248 248 269 255 266 229 197 195 211 159 99 115 116 121 65 48 50 63 57 44 52 62 80 149 145 130 137 139 125 147 154 158 156 141 147 147 160 160 163 150 142 133 143 156 161 177 169 155 165 115 99 334
180 59 347 331 5 341 348 44 62 48 51 69 168 161 133 111 79 33 351 360 67 51 18 8 348 283 165 150 161 119 121 128 130 141 142 142 149 151 159 158 132 128 142 156 154 142 177 157 153 143 101 110 98 91
82 113 113 328 332 347 343 20 41 19 13 43 31 51 46 64 75 48 291 307 44 61 281 266 277 264 142 212 131 136 117 78 72 64 53 98 124 132 165 145 136 139 149 153 150 143 167 148 144 134 115 117 131 121